User: anonymous   Login
Location: Dal�� Lhota
(48.7500°N, 14.0167°E)
Time: 04:15:56
(UTC+00:00)
Language:

Vanguard 1 Rocket - Orbit

View from above orbital plane
View from above orbital plane
View from above satellite
View from above satellite

Ground track
Ground track

The orbit data is extracted from the following two-line orbital elements,

1 00016U 58002A   21212.61757857  .00000216  00000-0  29295-3 0  9995
2 00016  34.2662  53.3413 2027879 162.8769 205.1860 10.48743810501795
Epoch (UTC): 31 July 2021 14:49:18
Eccentricity: 0.2027879
inclination: 34.2662°
perigee height: 650 km
apogee height: 4226 km
right ascension of ascending node: 53.3413°
argument of perigee: 162.8769°
revolutions per day: 10.48743810
mean anomaly at epoch: 205.1860°
orbit number at epoch: 50179

The dashed part of the orbit path shows where the satellite is in the earth's shadow,  

DLR